TAM3250 SBGR-SBPK

Flight info

Callsign TAM3250
Flight time 1h 30m
Altitude 36000
Route UBSOD UZ38 VAGAL DCT NELOX UM424 ARSAG
Aircraft A319/M-SDE3FGHIRWY/LB1

Departure

Time 2026-05-08 13:12
Airport São Paulo/Guarulhos–Governor André Franco Montoro International Airport (SBGR)

Arrival

Time 2026-05-08 14:42
Airport João Simões Lopes Neto International Airport (SBPK)
Time Latitude Longitude Altitude Speed Heading
2026-05-08 12:49 -23.42964 -46.48309 2467 ft 0 kts 355°
2026-05-08 13:05 -23.42970 -46.48308 2465 ft 4 kts 358°
2026-05-08 13:06 -23.42996 -46.48312 2461 ft 3 kts
2026-05-08 13:06 -23.43018 -46.48315 2461 ft 4 kts 11°
2026-05-08 13:06 -23.43044 -46.48320 2465 ft 4 kts 358°
2026-05-08 13:06 -23.43059 -46.48320 2464 ft 3 kts 269°
2026-05-08 13:07 -23.43059 -46.48313 2463 ft 0 kts 266°
2026-05-08 13:09 -23.43059 -46.48316 2461 ft 2 kts 266°
2026-05-08 13:09 -23.43063 -46.48354 2461 ft 8 kts 263°
2026-05-08 13:10 -23.43090 -46.48415 2464 ft 12 kts 214°
2026-05-08 13:10 -23.43177 -46.48406 2463 ft 14 kts 163°
2026-05-08 13:10 -23.43275 -46.48375 2466 ft 16 kts 163°
2026-05-08 13:10 -23.43383 -46.48337 2461 ft 18 kts 151°
2026-05-08 13:11 -23.43395 -46.48202 2463 ft 24 kts 73°
2026-05-08 13:11 -23.43294 -46.47838 2463 ft 79 kts 73°
2026-05-08 13:11 -23.43086 -46.47074 2463 ft 130 kts 73°
2026-05-08 13:11 -23.42792 -46.45972 2534 ft 165 kts 74°
2026-05-08 13:12 -23.42482 -46.44778 3145 ft 168 kts 68°
2026-05-08 13:12 -23.42121 -46.43482 3332 ft 191 kts 65°
2026-05-08 13:12 -23.41676 -46.42027 3608 ft 214 kts 66°
2026-05-08 13:12 -23.41236 -46.40449 4240 ft 226 kts 72°
2026-05-08 13:13 -23.41396 -46.38623 4519 ft 266 kts 109°
2026-05-08 13:13 -23.42660 -46.36993 4931 ft 300 kts 146°
2026-05-08 13:13 -23.44636 -46.36314 5633 ft 306 kts 183°
2026-05-08 13:13 -23.46644 -46.36844 6532 ft 294 kts 217°
2026-05-08 13:14 -23.48050 -46.38341 7407 ft 279 kts 244°
2026-05-08 13:14 -23.48938 -46.40203 8280 ft 277 kts 253°
2026-05-08 13:14 -23.49744 -46.42140 9060 ft 286 kts 245°
2026-05-08 13:14 -23.51109 -46.43776 9741 ft 306 kts 219°
2026-05-08 13:15 -23.52994 -46.44981 10322 ft 319 kts 213°
2026-05-08 13:15 -23.55006 -46.46199 10525 ft 342 kts 212°
2026-05-08 13:15 -23.57134 -46.47474 10977 ft 353 kts 212°
2026-05-08 13:15 -23.59306 -46.48769 11594 ft 358 kts 212°
2026-05-08 13:16 -23.61500 -46.50079 12233 ft 362 kts 212°
2026-05-08 13:16 -23.63718 -46.51407 12902 ft 364 kts 212°
2026-05-08 13:16 -23.65949 -46.52750 13564 ft 367 kts 212°
2026-05-08 13:16 -23.68196 -46.54109 14168 ft 371 kts 212°
2026-05-08 13:17 -23.70424 -46.55483 14715 ft 373 kts 213°
2026-05-08 13:17 -23.72678 -46.56929 15266 ft 377 kts 214°
2026-05-08 13:17 -23.74925 -46.58403 15912 ft 377 kts 215°
2026-05-08 13:17 -23.77177 -46.59888 16501 ft 379 kts 213°
2026-05-08 13:18 -23.79448 -46.61380 17056 ft 383 kts 214°
2026-05-08 13:18 -23.81746 -46.62883 17584 ft 387 kts 214°
2026-05-08 13:18 -23.84065 -46.64397 18091 ft 391 kts 214°
2026-05-08 13:18 -23.86410 -46.65924 18595 ft 394 kts 213°
2026-05-08 13:19 -23.88769 -46.67456 19113 ft 395 kts 213°
2026-05-08 13:19 -23.91108 -46.68975 19607 ft 397 kts 213°
2026-05-08 13:19 -23.93487 -46.70522 20125 ft 399 kts 214°
2026-05-08 13:19 -23.95878 -46.72076 20659 ft 400 kts 214°
2026-05-08 13:20 -23.98279 -46.73637 21167 ft 402 kts 214°
2026-05-08 13:20 -24.00689 -46.75207 21656 ft 404 kts 215°
2026-05-08 13:20 -24.03114 -46.76788 22099 ft 407 kts 215°
2026-05-08 13:20 -24.05548 -46.78377 22616 ft 409 kts 216°
2026-05-08 13:21 -24.07996 -46.79975 23123 ft 411 kts 216°
2026-05-08 13:21 -24.10454 -46.81581 23616 ft 412 kts 217°
2026-05-08 13:21 -24.12923 -46.83197 24037 ft 413 kts 217°
2026-05-08 13:21 -24.15366 -46.84798 24423 ft 415 kts 217°
2026-05-08 13:22 -24.17854 -46.86425 24823 ft 417 kts 217°
2026-05-08 13:22 -24.20354 -46.88057 25229 ft 419 kts 217°
2026-05-08 13:22 -24.22865 -46.89693 25595 ft 420 kts 217°
2026-05-08 13:22 -24.25381 -46.91335 25986 ft 422 kts 217°
2026-05-08 13:23 -24.27905 -46.92989 26370 ft 424 kts 217°
2026-05-08 13:23 -24.30442 -46.94656 26749 ft 426 kts 217°
2026-05-08 13:23 -24.32987 -46.96326 27123 ft 427 kts 217°
2026-05-08 13:23 -24.35544 -46.98007 27498 ft 429 kts 217°
2026-05-08 13:24 -24.38108 -46.99693 27904 ft 431 kts 217°
2026-05-08 13:24 -24.40689 -47.01385 28289 ft 433 kts 218°
2026-05-08 13:24 -24.43281 -47.03082 28661 ft 434 kts 218°
2026-05-08 13:24 -24.45885 -47.04791 29034 ft 436 kts 218°
2026-05-08 13:25 -24.48463 -47.06486 29390 ft 438 kts 218°
2026-05-08 13:25 -24.51083 -47.08211 29753 ft 440 kts 218°
2026-05-08 13:25 -24.53711 -47.09942 30091 ft 442 kts 218°
2026-05-08 13:25 -24.56357 -47.11685 30390 ft 443 kts 218°
2026-05-08 13:26 -24.59008 -47.13433 30682 ft 445 kts 218°
2026-05-08 13:26 -24.61664 -47.15185 30972 ft 446 kts 218°
2026-05-08 13:26 -24.64330 -47.16940 31256 ft 448 kts 218°
2026-05-08 13:26 -24.67007 -47.18705 31551 ft 449 kts 218°
2026-05-08 13:27 -24.69683 -47.20470 31950 ft 447 kts 219°
2026-05-08 13:27 -24.72346 -47.22228 32353 ft 446 kts 219°
2026-05-08 13:27 -24.75005 -47.23982 32768 ft 444 kts 219°
2026-05-08 13:27 -24.77652 -47.25729 33194 ft 442 kts 219°
2026-05-08 13:28 -24.80286 -47.27471 33626 ft 441 kts 219°
2026-05-08 13:28 -24.82903 -47.29207 34036 ft 438 kts 219°
2026-05-08 13:28 -24.85509 -47.30941 34416 ft 437 kts 219°
2026-05-08 13:28 -24.88080 -47.32649 34769 ft 435 kts 219°
2026-05-08 13:29 -24.90674 -47.34367 35111 ft 434 kts 219°
2026-05-08 13:29 -24.93269 -47.36084 35443 ft 433 kts 219°
2026-05-08 13:29 -24.95846 -47.37790 35769 ft 432 kts 219°
2026-05-08 13:29 -24.98421 -47.39499 35908 ft 431 kts 219°
2026-05-08 13:30 -25.03538 -47.42905 35923 ft 428 kts 219°
2026-05-08 13:30 -25.08613 -47.46284 35921 ft 428 kts 219°
2026-05-08 13:31 -25.13713 -47.49679 35922 ft 428 kts 219°
2026-05-08 13:31 -25.18819 -47.53078 35921 ft 428 kts 219°
2026-05-08 13:32 -25.23921 -47.56480 35911 ft 428 kts 219°
2026-05-08 13:32 -25.29023 -47.59880 35922 ft 428 kts 219°
2026-05-08 13:33 -25.34090 -47.63270 35914 ft 428 kts 219°
2026-05-08 13:33 -25.39189 -47.66693 35903 ft 429 kts 219°
2026-05-08 13:34 -25.44301 -47.70117 35897 ft 429 kts 219°
2026-05-08 13:34 -25.49416 -47.73547 35890 ft 429 kts 219°
2026-05-08 13:35 -25.54531 -47.76968 35891 ft 429 kts 219°
2026-05-08 13:35 -25.59642 -47.80387 35911 ft 429 kts 220°
2026-05-08 13:36 -25.64726 -47.83798 35915 ft 430 kts 220°
2026-05-08 13:36 -25.69836 -47.87246 35907 ft 430 kts 220°
2026-05-08 13:37 -25.74946 -47.90698 35896 ft 430 kts 220°
2026-05-08 13:37 -25.80055 -47.94146 35887 ft 430 kts 220°
2026-05-08 13:38 -25.85170 -47.97595 35878 ft 430 kts 220°
2026-05-08 13:38 -25.90278 -48.01044 35889 ft 430 kts 220°
2026-05-08 13:39 -25.95357 -48.04483 35906 ft 430 kts 221°
2026-05-08 13:39 -26.00496 -48.07976 35891 ft 430 kts 221°
2026-05-08 13:40 -26.05586 -48.11418 35880 ft 431 kts 221°
2026-05-08 13:40 -26.10700 -48.14880 35876 ft 430 kts 221°
2026-05-08 13:41 -26.15813 -48.18350 35871 ft 430 kts 221°
2026-05-08 13:41 -26.20919 -48.21826 35879 ft 430 kts 221°
2026-05-08 13:42 -26.26041 -48.25316 35874 ft 431 kts 221°
2026-05-08 13:42 -26.31140 -48.28790 35871 ft 432 kts 221°
2026-05-08 13:43 -26.36266 -48.32295 35871 ft 432 kts 221°
2026-05-08 13:43 -26.41404 -48.35798 35865 ft 433 kts 221°
2026-05-08 13:44 -26.46548 -48.39303 35868 ft 433 kts 221°
2026-05-08 13:44 -26.51656 -48.42800 35879 ft 433 kts 221°
2026-05-08 13:45 -26.55963 -48.45756 35865 ft 434 kts 221°
2026-05-08 13:45 -26.61085 -48.49267 35861 ft 435 kts 221°
2026-05-08 13:46 -26.66250 -48.52810 35859 ft 436 kts 221°
2026-05-08 13:46 -26.71417 -48.56368 35861 ft 436 kts 221°
2026-05-08 13:47 -26.76593 -48.59922 35853 ft 437 kts 221°
2026-05-08 13:47 -26.81782 -48.63491 35854 ft 437 kts 221°
2026-05-08 13:48 -26.86969 -48.67064 35847 ft 438 kts 221°
2026-05-08 13:48 -26.92156 -48.70638 35841 ft 440 kts 221°
2026-05-08 13:49 -26.97377 -48.74249 35845 ft 442 kts 221°
2026-05-08 13:49 -27.02622 -48.77880 35856 ft 443 kts 221°
2026-05-08 13:50 -27.07865 -48.81509 35859 ft 443 kts 221°
2026-05-08 13:50 -27.13116 -48.85150 35871 ft 443 kts 221°
2026-05-08 13:51 -27.18374 -48.88804 35864 ft 444 kts 221°
2026-05-08 13:51 -27.23638 -48.92456 35869 ft 445 kts 221°
2026-05-08 13:52 -27.28872 -48.96092 35873 ft 445 kts 221°
2026-05-08 13:52 -27.34144 -48.99762 35871 ft 445 kts 221°
2026-05-08 13:53 -27.39410 -49.03435 35874 ft 445 kts 221°
2026-05-08 13:53 -27.44679 -49.07115 35894 ft 445 kts 221°
2026-05-08 13:54 -27.49950 -49.10794 35903 ft 445 kts 221°
2026-05-08 13:54 -27.55194 -49.14462 35892 ft 446 kts 221°
2026-05-08 13:55 -27.60471 -49.18154 35892 ft 446 kts 221°
2026-05-08 13:56 -27.68371 -49.23689 35886 ft 445 kts 222°
2026-05-08 13:56 -27.73631 -49.27388 35897 ft 446 kts 221°
2026-05-08 13:57 -27.78899 -49.31098 35895 ft 446 kts 221°
2026-05-08 13:57 -27.84170 -49.34806 35877 ft 446 kts 220°
2026-05-08 13:58 -27.89451 -49.38522 35874 ft 447 kts 221°
2026-05-08 13:58 -27.94693 -49.42221 35875 ft 447 kts 221°
2026-05-08 13:59 -27.99973 -49.45953 35878 ft 447 kts 221°
2026-05-08 13:59 -28.05266 -49.49693 35899 ft 448 kts 221°
2026-05-08 14:00 -28.10562 -49.53442 35904 ft 449 kts 222°
2026-05-08 14:00 -28.15862 -49.57202 35888 ft 450 kts 222°
2026-05-08 14:01 -28.21167 -49.60974 35876 ft 450 kts 222°
2026-05-08 14:01 -28.26481 -49.64754 35878 ft 450 kts 222°
2026-05-08 14:02 -28.31794 -49.68529 35918 ft 451 kts 222°
2026-05-08 14:02 -28.37121 -49.72325 35898 ft 452 kts 223°
2026-05-08 14:03 -28.42416 -49.76104 35903 ft 453 kts 223°
2026-05-08 14:03 -28.47758 -49.79911 35881 ft 453 kts 222°
2026-05-08 14:04 -28.53105 -49.83728 35878 ft 454 kts 223°
2026-05-08 14:04 -28.58455 -49.87552 35872 ft 454 kts 223°
2026-05-08 14:05 -28.63810 -49.91386 35898 ft 454 kts 222°
2026-05-08 14:05 -28.69136 -49.95204 35889 ft 455 kts 222°
2026-05-08 14:06 -28.74494 -49.99050 35921 ft 455 kts 223°
2026-05-08 14:06 -28.79856 -50.02916 35913 ft 455 kts 223°
2026-05-08 14:07 -28.85202 -50.06768 35915 ft 455 kts 223°
2026-05-08 14:07 -28.90557 -50.10621 35913 ft 455 kts 223°
2026-05-08 14:08 -28.95905 -50.14476 35918 ft 455 kts 223°
2026-05-08 14:08 -29.01221 -50.18323 35917 ft 455 kts 223°
2026-05-08 14:09 -29.06575 -50.22202 35928 ft 455 kts 223°
2026-05-08 14:09 -29.11935 -50.26081 35920 ft 456 kts 223°
2026-05-08 14:10 -29.17292 -50.29969 35908 ft 456 kts 223°
2026-05-08 14:10 -29.22658 -50.33869 35926 ft 456 kts 223°
2026-05-08 14:11 -29.27997 -50.37749 35908 ft 457 kts 223°
2026-05-08 14:11 -29.33366 -50.41651 35900 ft 457 kts 223°
2026-05-08 14:12 -29.38737 -50.45569 35928 ft 457 kts 223°
2026-05-08 14:12 -29.44089 -50.49481 35922 ft 456 kts 223°
2026-05-08 14:13 -29.49432 -50.53393 35911 ft 455 kts 224°
2026-05-08 14:13 -29.54731 -50.57272 35925 ft 455 kts 223°
2026-05-08 14:14 -29.60072 -50.61184 35911 ft 455 kts 223°
2026-05-08 14:14 -29.65422 -50.65104 35946 ft 455 kts 223°
2026-05-08 14:15 -29.70719 -50.68989 35914 ft 454 kts 224°
2026-05-08 14:15 -29.76037 -50.72907 35904 ft 454 kts 224°
2026-05-08 14:15 -29.78702 -50.74871 35723 ft 455 kts 224°
2026-05-08 14:16 -29.81368 -50.76834 35482 ft 455 kts 224°
2026-05-08 14:16 -29.84039 -50.78801 35238 ft 455 kts 223°
2026-05-08 14:16 -29.86705 -50.80767 34994 ft 455 kts 223°
2026-05-08 14:16 -29.89376 -50.82737 34764 ft 455 kts 223°
2026-05-08 14:17 -29.92044 -50.84708 34520 ft 456 kts 223°
2026-05-08 14:17 -29.94712 -50.86679 34287 ft 456 kts 223°
2026-05-08 14:17 -29.97389 -50.88658 34085 ft 456 kts 223°
2026-05-08 14:17 -30.00060 -50.90636 33847 ft 456 kts 223°
2026-05-08 14:18 -30.02706 -50.92598 33578 ft 457 kts 223°
2026-05-08 14:18 -30.05390 -50.94587 33319 ft 457 kts 223°
2026-05-08 14:18 -30.08092 -50.96590 33054 ft 457 kts 223°
2026-05-08 14:18 -30.10742 -50.98557 32798 ft 457 kts 223°
2026-05-08 14:19 -30.13420 -51.00550 32592 ft 457 kts 224°
2026-05-08 14:19 -30.16091 -51.02539 32341 ft 456 kts 224°
2026-05-08 14:19 -30.18746 -51.04511 31908 ft 452 kts 224°
2026-05-08 14:19 -30.21391 -51.06476 31379 ft 450 kts 224°
2026-05-08 14:20 -30.24017 -51.08427 30872 ft 448 kts 224°
2026-05-08 14:20 -30.26597 -51.10347 30346 ft 445 kts 224°
2026-05-08 14:20 -30.29222 -51.12303 29796 ft 442 kts 224°
2026-05-08 14:20 -30.31795 -51.14219 29252 ft 438 kts 224°
2026-05-08 14:21 -30.34312 -51.16094 28746 ft 433 kts 224°
2026-05-08 14:21 -30.36836 -51.17974 28240 ft 429 kts 224°
2026-05-08 14:21 -30.39333 -51.19838 27745 ft 424 kts 224°
2026-05-08 14:21 -30.41803 -51.21686 27257 ft 420 kts 224°
2026-05-08 14:22 -30.44253 -51.23520 26792 ft 417 kts 224°
2026-05-08 14:22 -30.46683 -51.25339 26316 ft 414 kts 224°
2026-05-08 14:22 -30.49096 -51.27147 25854 ft 411 kts 224°
2026-05-08 14:22 -30.51490 -51.28943 25417 ft 408 kts 224°
2026-05-08 14:23 -30.53861 -51.30722 24976 ft 406 kts 224°
2026-05-08 14:23 -30.56229 -51.32499 24549 ft 404 kts 224°
2026-05-08 14:23 -30.58578 -51.34265 24149 ft 402 kts 224°
2026-05-08 14:23 -30.60919 -51.36028 23675 ft 401 kts 224°
2026-05-08 14:24 -30.63231 -51.37768 23204 ft 399 kts 224°
2026-05-08 14:24 -30.65548 -51.39512 22735 ft 395 kts 224°
2026-05-08 14:24 -30.67844 -51.41236 22287 ft 391 kts 224°
2026-05-08 14:24 -30.70120 -51.42944 21825 ft 387 kts 224°
2026-05-08 14:25 -30.72369 -51.44636 21362 ft 383 kts 224°
2026-05-08 14:25 -30.74595 -51.46314 20926 ft 379 kts 225°
2026-05-08 14:25 -30.76804 -51.47984 20411 ft 377 kts 225°
2026-05-08 14:25 -30.78995 -51.49642 19940 ft 374 kts 225°
2026-05-08 14:26 -30.81169 -51.51285 19461 ft 370 kts 225°
2026-05-08 14:26 -30.83316 -51.52913 18988 ft 367 kts 225°
2026-05-08 14:26 -30.85444 -51.54531 18511 ft 364 kts 225°
2026-05-08 14:26 -30.87552 -51.56141 18025 ft 360 kts 225°
2026-05-08 14:27 -30.89637 -51.57738 17550 ft 356 kts 225°
2026-05-08 14:27 -30.91677 -51.59298 17064 ft 352 kts 225°
2026-05-08 14:27 -30.93713 -51.60852 16606 ft 347 kts 225°
2026-05-08 14:27 -30.95726 -51.62390 16150 ft 343 kts 224°
2026-05-08 14:28 -30.97706 -51.63908 15694 ft 339 kts 224°
2026-05-08 14:28 -30.99671 -51.65415 15254 ft 336 kts 224°
2026-05-08 14:28 -31.01616 -51.66903 14811 ft 333 kts 224°
2026-05-08 14:28 -31.03540 -51.68373 14388 ft 330 kts 224°
2026-05-08 14:29 -31.05460 -51.69840 13939 ft 329 kts 224°
2026-05-08 14:29 -31.07363 -51.71296 13476 ft 326 kts 223°
2026-05-08 14:29 -31.09252 -51.72745 13016 ft 323 kts 223°
2026-05-08 14:29 -31.11099 -51.74164 12601 ft 319 kts 223°
2026-05-08 14:30 -31.12950 -51.75585 12179 ft 316 kts 223°
2026-05-08 14:30 -31.14781 -51.76990 11765 ft 313 kts 223°
2026-05-08 14:30 -31.16590 -51.78381 11356 ft 310 kts 223°
2026-05-08 14:30 -31.18384 -51.79762 10951 ft 308 kts 223°
2026-05-08 14:31 -31.20168 -51.81137 10567 ft 306 kts 222°
2026-05-08 14:31 -31.21920 -51.82487 10161 ft 305 kts 222°
2026-05-08 14:31 -31.23667 -51.83826 9999 ft 294 kts 222°
2026-05-08 14:32 -31.27014 -51.86383 9671 ft 284 kts 222°
2026-05-08 14:32 -31.28664 -51.87658 9460 ft 283 kts 223°
2026-05-08 14:32 -31.30308 -51.88933 9120 ft 284 kts 223°
2026-05-08 14:32 -31.31955 -51.90211 8799 ft 284 kts 223°
2026-05-08 14:33 -31.33599 -51.91485 8451 ft 285 kts 223°
2026-05-08 14:33 -31.35236 -51.92751 8097 ft 280 kts 223°
2026-05-08 14:33 -31.36855 -51.93997 7681 ft 278 kts 223°
2026-05-08 14:33 -31.38477 -51.95251 7380 ft 278 kts 223°
2026-05-08 14:34 -31.40064 -51.96476 7030 ft 277 kts 223°
2026-05-08 14:34 -31.41662 -51.97710 6651 ft 276 kts 223°
2026-05-08 14:34 -31.43252 -51.98939 6323 ft 273 kts 223°
2026-05-08 14:34 -31.44835 -52.00163 6016 ft 269 kts 222°
2026-05-08 14:35 -31.46401 -52.01375 5551 ft 270 kts 222°
2026-05-08 14:35 -31.47951 -52.02576 5095 ft 265 kts 221°
2026-05-08 14:35 -31.49480 -52.03760 4650 ft 261 kts 221°
2026-05-08 14:35 -31.50984 -52.04924 4206 ft 257 kts 220°
2026-05-08 14:36 -31.51970 -52.05688 3911 ft 257 kts 220°
2026-05-08 14:36 -31.53460 -52.06844 3709 ft 253 kts 220°
2026-05-08 14:36 -31.54773 -52.08097 3711 ft 235 kts 234°
2026-05-08 14:36 -31.55783 -52.09546 3650 ft 225 kts 238°
2026-05-08 14:37 -31.56746 -52.10952 3596 ft 217 kts 238°
2026-05-08 14:37 -31.57679 -52.12307 3532 ft 209 kts 238°
2026-05-08 14:37 -31.58574 -52.13603 3466 ft 199 kts 238°
2026-05-08 14:37 -31.59419 -52.14829 3395 ft 188 kts 238°
2026-05-08 14:38 -31.60464 -52.16344 3370 ft 176 kts 238°
2026-05-08 14:38 -31.60983 -52.17099 3345 ft 177 kts 239°
2026-05-08 14:38 -31.61758 -52.18233 3057 ft 178 kts 239°
2026-05-08 14:38 -31.62533 -52.19365 2795 ft 178 kts 239°
2026-05-08 14:39 -31.63301 -52.20483 2561 ft 175 kts 239°
2026-05-08 14:39 -31.64063 -52.21590 2295 ft 173 kts 238°
2026-05-08 14:39 -31.64809 -52.22673 2060 ft 169 kts 238°
2026-05-08 14:39 -31.65525 -52.23711 1824 ft 160 kts 238°
2026-05-08 14:40 -31.66198 -52.24681 1629 ft 144 kts 238°
2026-05-08 14:40 -31.66791 -52.25540 1442 ft 129 kts 240°
2026-05-08 14:40 -31.67339 -52.26339 1291 ft 124 kts 240°
2026-05-08 14:40 -31.67867 -52.27123 1096 ft 121 kts 241°
2026-05-08 14:41 -31.68381 -52.27906 915 ft 121 kts 242°
2026-05-08 14:41 -31.68917 -52.28698 760 ft 125 kts 238°
2026-05-08 14:41 -31.69469 -52.29500 630 ft 126 kts 238°
2026-05-08 14:41 -31.70009 -52.30288 474 ft 125 kts 239°
2026-05-08 14:42 -31.70555 -52.31088 292 ft 126 kts 239°
2026-05-08 14:42 -31.71101 -52.31882 125 ft 124 kts 237°
2026-05-08 14:42 -31.71594 -52.32613 59 ft 91 kts 231°
2026-05-08 14:42 -31.71804 -52.32909 55 ft 5 kts 231°
2026-05-08 14:43 -31.71809 -52.32960 63 ft 9 kts 309°
2026-05-08 14:43 -31.71751 -52.33010 61 ft 10 kts 321°
2026-05-08 14:43 -31.71711 -52.33049 63 ft 7 kts 321°
2026-05-08 14:43 -31.71688 -52.33054 62 ft 2 kts 31°
2026-05-08 14:44 -31.71678 -52.33039 63 ft 2 kts 51°
2026-05-08 14:44 -31.71670 -52.33026 63 ft 2 kts 52°
2026-05-08 14:44 -31.71658 -52.33015 58 ft 2 kts 27°
2026-05-08 14:44 -31.71643 -52.33018 63 ft 4 kts 343°
2026-05-08 14:45 -31.71611 -52.33029 60 ft 4 kts
2026-05-08 14:45 -31.71605 -52.33027 61 ft 0 kts